User: anonymous   Login
Location: Champs
(48.8539°N, 2.6040°E)
Time: 07:57:48
(UTC+00:00)
Language:

USA 308 - Orbit

View from above orbital plane
View from above orbital plane
View from above satellite
View from above satellite

Ground track
Ground track

The orbit data is extracted from the following two-line orbital elements,

1 45876U 20046D   22275.14440414 0.00020000  00000-0  13043-2 0    00
2 45876  53.9768   9.0836 0002000  12.4384 347.5615 15.07420564    05
Epoch (UTC): 02 October 2022 03:27:56
Eccentricity: 0.0002000
inclination: 53.9768°
perigee height: 543 km
apogee height: 545 km
right ascension of ascending node: 9.0836°
argument of perigee: 12.4384°
revolutions per day: 15.07420564
mean anomaly at epoch: 347.5615°
orbit number at epoch: 0

The dashed part of the orbit path shows where the satellite is in the earth's shadow,  

DLR